Saint Bonnet de Bellac- Haute Vienne - France
Donnes mto: lundi, 30/01/2012
Date Horaire Temp. E. Hum. E. P.atmo. Pluie Vent Direction Direction Ensoleilleme Solaire P. de rose Temp au vent Rafales
30/01/2012 00:00 -1,1 C 82 % 1024,4 hPa 0,0 mm 0,4 km/h (0 Bft) NE 45 0 min 0 W/m -3,8 C -1,1 C 0,4 km/h (0 Bft)
30/01/2012 00:10 -1,2 C 83 % 1024,5 hPa 0,0 mm 0,0 km/h (0 Bft) E-NE 67 0 min 0 W/m -3,7 C -1,2 C 0,0 km/h (0 Bft)
30/01/2012 00:20 -1,4 C 83 % 1024,4 hPa 0,0 mm 0,0 km/h (0 Bft) E-NE 67 0 min 0 W/m -3,9 C -1,4 C 0,0 km/h (0 Bft)
30/01/2012 00:30 -1,6 C 83 % 1024,5 hPa 0,0 mm 0,0 km/h (0 Bft) E-NE 67 0 min 0 W/m -4,1 C -1,6 C 0,0 km/h (0 Bft)
30/01/2012 00:40 -1,9 C 83 % 1024,5 hPa 0,0 mm 0,0 km/h (0 Bft) E-NE 67 0 min 0 W/m -4,4 C -1,9 C 0,0 km/h (0 Bft)
30/01/2012 00:50 -2,1 C 84 % 1024,4 hPa 0,0 mm 0,0 km/h (0 Bft) E-NE 67 0 min 0 W/m -4,4 C -2,1 C 0,0 km/h (0 Bft)
30/01/2012 01:00 -2,2 C 84 % 1024,5 hPa 0,0 mm 0,0 km/h (0 Bft) E-NE 67 0 min 0 W/m -4,5 C -2,2 C 0,0 km/h (0 Bft)
30/01/2012 01:10 -2,4 C 85 % 1024,4 hPa 0,0 mm 0,0 km/h (0 Bft) E-NE 67 0 min 0 W/m -4,6 C -2,4 C 0,0 km/h (0 Bft)
30/01/2012 01:20 -2,5 C 85 % 1024,3 hPa 0,0 mm 0,0 km/h (0 Bft) E-NE 67 0 min 0 W/m -4,7 C -2,5 C 0,0 km/h (0 Bft)
30/01/2012 01:30 -2,6 C 86 % 1024,4 hPa 0,0 mm 0,0 km/h (0 Bft) NE 45 0 min 0 W/m -4,6 C -2,6 C 0,0 km/h (0 Bft)
30/01/2012 01:40 -2,6 C 86 % 1024,4 hPa 0,0 mm 0,0 km/h (0 Bft) NE 45 0 min 0 W/m -4,6 C -2,6 C 0,0 km/h (0 Bft)
30/01/2012 01:50 -2,5 C 86 % 1024,4 hPa 0,0 mm 0,0 km/h (0 Bft) NE 45 0 min 0 W/m -4,5 C -2,5 C 0,0 km/h (0 Bft)
30/01/2012 02:02 -2,5 C 87 % 1024,4 hPa 0,0 mm 0,0 km/h (0 Bft) N 360 0 min 0 W/m -4,4 C -2,5 C 0,0 km/h (0 Bft)
30/01/2012 02:10 -2,4 C 87 % 1024,6 hPa 0,0 mm 0,0 km/h (0 Bft) NE 45 0 min 0 W/m -4,3 C -2,4 C 0,0 km/h (0 Bft)
30/01/2012 02:20 -2,4 C 87 % 1024,6 hPa 0,0 mm 0,0 km/h (0 Bft) NE 45 0 min 0 W/m -4,3 C -2,4 C 0,0 km/h (0 Bft)
30/01/2012 02:30 -2,2 C 87 % 1024,7 hPa 0,0 mm 0,0 km/h (0 Bft) NE 45 0 min 0 W/m -4,1 C -2,2 C 0,0 km/h (0 Bft)
30/01/2012 02:40 -2,2 C 87 % 1024,6 hPa 0,0 mm 0,0 km/h (0 Bft) NE 45 0 min 0 W/m -4,1 C -2,2 C 0,0 km/h (0 Bft)
30/01/2012 02:50 -2,2 C 88 % 1024,5 hPa 0,0 mm 0,0 km/h (0 Bft) NE 45 0 min 0 W/m -3,9 C -2,2 C 0,0 km/h (0 Bft)
30/01/2012 03:00 -2,2 C 88 % 1024,5 hPa 0,0 mm 0,0 km/h (0 Bft) NE 45 0 min 0 W/m -3,9 C -2,2 C 0,0 km/h (0 Bft)
30/01/2012 03:10 -2,2 C 88 % 1024,5 hPa 0,0 mm 0,0 km/h (0 Bft) NE 45 0 min 0 W/m -3,9 C -2,2 C 0,0 km/h (0 Bft)
30/01/2012 03:20 -2,3 C 88 % 1024,5 hPa 0,0 mm 0,0 km/h (0 Bft) NE 45 0 min 0 W/m -4,0 C -2,3 C 0,0 km/h (0 Bft)
30/01/2012 03:30 -2,5 C 88 % 1024,5 hPa 0,0 mm 0,0 km/h (0 Bft) NE 45 0 min 0 W/m -4,2 C -2,5 C 0,0 km/h (0 Bft)
30/01/2012 03:40 -2,7 C 88 % 1024,4 hPa 0,0 mm 0,0 km/h (0 Bft) NE 45 0 min 0 W/m -4,4 C -2,7 C 0,0 km/h (0 Bft)
30/01/2012 03:50 -2,9 C 88 % 1024,5 hPa 0,0 mm 0,0 km/h (0 Bft) NE 45 0 min 0 W/m -4,6 C -2,9 C 0,0 km/h (0 Bft)
30/01/2012 04:00 -3,2 C 88 % 1024,5 hPa 0,0 mm 0,0 km/h (0 Bft) NE 45 0 min 0 W/m -4,9 C -3,2 C 0,0 km/h (0 Bft)
30/01/2012 04:10 -3,4 C 88 % 1024,4 hPa 0,0 mm 0,0 km/h (0 Bft) NE 45 0 min 0 W/m -5,1 C -3,4 C 0,0 km/h (0 Bft)
30/01/2012 04:20 -3,4 C 89 % 1024,4 hPa 0,0 mm 0,0 km/h (0 Bft) NE 45 0 min 0 W/m -4,9 C -3,4 C 0,0 km/h (0 Bft)
30/01/2012 04:30 -3,4 C 89 % 1024,3 hPa 0,0 mm 0,0 km/h (0 Bft) NE 45 0 min 0 W/m -4,9 C -3,4 C 0,0 km/h (0 Bft)
30/01/2012 04:40 -3,4 C 89 % 1024,3 hPa 0,0 mm 0,0 km/h (0 Bft) NE 45 0 min 0 W/m -4,9 C -3,4 C 0,0 km/h (0 Bft)
30/01/2012 04:50 -3,2 C 89 % 1024,2 hPa 0,0 mm 0,0 km/h (0 Bft) NE 45 0 min 0 W/m -4,7 C -3,2 C 0,0 km/h (0 Bft)
30/01/2012 05:00 -3,1 C 89 % 1024,2 hPa 0,0 mm 0,0 km/h (0 Bft) NE 45 0 min 0 W/m -4,6 C -3,1 C 0,0 km/h (0 Bft)
30/01/2012 05:10 -3,1 C 89 % 1024,3 hPa 0,0 mm 0,0 km/h (0 Bft) NE 45 0 min 0 W/m -4,6 C -3,1 C 0,0 km/h (0 Bft)
30/01/2012 05:20 -3,1 C 89 % 1024,3 hPa 0,0 mm 0,0 km/h (0 Bft) NE 45 0 min 0 W/m -4,6 C -3,1 C 0,0 km/h (0 Bft)
30/01/2012 05:30 -3,1 C 89 % 1024,3 hPa 0,0 mm 0,0 km/h (0 Bft) NE 45 0 min 0 W/m -4,6 C -3,1 C 0,0 km/h (0 Bft)
30/01/2012 05:40 -3,2 C 89 % 1024,2 hPa 0,0 mm 0,0 km/h (0 Bft) NE 45 0 min 0 W/m -4,7 C -3,2 C 0,0 km/h (0 Bft)
30/01/2012 05:50 -3,4 C 90 % 1024,3 hPa 0,0 mm 0,0 km/h (0 Bft) NE 45 0 min 0 W/m -4,8 C -3,4 C 0,0 km/h (0 Bft)
30/01/2012 06:00 -3,5 C 90 % 1024,2 hPa 0,0 mm 0,0 km/h (0 Bft) NE 45 0 min 0 W/m -4,9 C -3,5 C 0,0 km/h (0 Bft)
30/01/2012 06:10 -3,7 C 90 % 1024,1 hPa 0,0 mm 0,0 km/h (0 Bft) NE 45 0 min 0 W/m -5,1 C -3,7 C 0,0 km/h (0 Bft)
30/01/2012 06:20 -3,9 C 90 % 1024,1 hPa 0,0 mm 0,0 km/h (0 Bft) NE 45 0 min 0 W/m -5,3 C -3,9 C 0,0 km/h (0 Bft)
30/01/2012 06:30 -4,2 C 90 % 1024,1 hPa 0,0 mm 0,0 km/h (0 Bft) NE 45 0 min 0 W/m -5,6 C -4,2 C 0,0 km/h (0 Bft)
30/01/2012 06:40 -4,4 C 90 % 1024,0 hPa 0,0 mm 0,0 km/h (0 Bft) NE 45 0 min 0 W/m -5,8 C -4,4 C 0,0 km/h (0 Bft)
30/01/2012 06:50 -4,5 C 90 % 1024,2 hPa 0,0 mm 0,0 km/h (0 Bft) NE 45 0 min 0 W/m -5,9 C -4,5 C 0,0 km/h (0 Bft)
30/01/2012 07:00 -4,2 C 91 % 1024,2 hPa 0,0 mm 0,0 km/h (0 Bft) NE 45 0 min 0 W/m -5,4 C -4,2 C 0,0 km/h (0 Bft)
30/01/2012 07:10 -4,2 C 91 % 1024,2 hPa 0,0 mm 0,0 km/h (0 Bft) NE 45 0 min 0 W/m -5,4 C -4,2 C 0,0 km/h (0 Bft)
30/01/2012 07:20 -4,0 C 92 % 1024,2 hPa 0,0 mm 0,0 km/h (0 Bft) S-SE 157 0 min 0 W/m -5,1 C -4,0 C 0,0 km/h (0 Bft)
30/01/2012 07:30 -4,0 C 92 % 1024,1 hPa 0,0 mm 0,0 km/h (0 Bft) S-SE 157 0 min 0 W/m -5,1 C -4,0 C 0,0 km/h (0 Bft)
30/01/2012 07:40 -4,0 C 92 % 1024,1 hPa 0,0 mm 0,0 km/h (0 Bft) S-SE 157 0 min 0 W/m -5,1 C -4,0 C 0,0 km/h (0 Bft)
30/01/2012 07:50 -4,0 C 92 % 1024,0 hPa 0,0 mm 0,0 km/h (0 Bft) S-SO 202 0 min 0 W/m -5,1 C -4,0 C 0,0 km/h (0 Bft)
30/01/2012 08:00 -3,9 C 92 % 1024,0 hPa 0,0 mm 0,0 km/h (0 Bft) S-SO 202 0 min 0 W/m -5,0 C -3,9 C 0,0 km/h (0 Bft)
30/01/2012 08:10 -4,1 C 92 % 1024,1 hPa 0,0 mm 0,0 km/h (0 Bft) S-SO 202 0 min 0 W/m -5,2 C -4,1 C 0,0 km/h (0 Bft)
30/01/2012 08:20 -4,1 C 92 % 1024,2 hPa 0,0 mm 0,0 km/h (0 Bft) S-SO 202 0 min 0 W/m -5,2 C -4,1 C 0,0 km/h (0 Bft)
30/01/2012 08:30 -4,0 C 92 % 1024,0 hPa 0,0 mm 0,0 km/h (0 Bft) S-SO 202 0 min 0 W/m -5,1 C -4,0 C 0,0 km/h (0 Bft)
30/01/2012 08:40 -3,7 C 92 % 1024,1 hPa 0,0 mm 0,0 km/h (0 Bft) S-SO 202 2 min 0 W/m -4,8 C -3,7 C 0,0 km/h (0 Bft)
30/01/2012 08:50 -3,4 C 93 % 1024,2 hPa 0,0 mm 0,0 km/h (0 Bft) S-SO 202 2 min 0 W/m -4,4 C -3,4 C 0,0 km/h (0 Bft)
30/01/2012 09:00 -3,1 C 93 % 1024,1 hPa 0,0 mm 0,0 km/h (0 Bft) S-SO 202 2 min 0 W/m -4,1 C -3,1 C 0,0 km/h (0 Bft)
30/01/2012 09:10 -2,9 C 93 % 1024,2 hPa 0,0 mm 0,0 km/h (0 Bft) S-SO 202 2 min 0 W/m -3,9 C -2,9 C 0,0 km/h (0 Bft)
30/01/2012 09:20 -2,7 C 93 % 1024,1 hPa 0,0 mm 0,0 km/h (0 Bft) S-SO 202 2 min 0 W/m -3,7 C -2,7 C 0,0 km/h (0 Bft)
30/01/2012 09:30 -2,6 C 93 % 1024,2 hPa 0,0 mm 0,0 km/h (0 Bft) S-SO 202 2 min 0 W/m -3,6 C -2,6 C 0,0 km/h (0 Bft)
30/01/2012 09:40 -2,4 C 93 % 1024,0 hPa 0,0 mm 0,0 km/h (0 Bft) S-SO 202 2 min 0 W/m -3,4 C -2,4 C 0,0 km/h (0 Bft)
30/01/2012 09:50 -2,2 C 93 % 1024,2 hPa 0,0 mm 0,0 km/h (0 Bft) S-SO 202 2 min 0 W/m -3,2 C -2,2 C 0,0 km/h (0 Bft)
30/01/2012 10:00 -2,1 C 93 % 1024,0 hPa 0,0 mm 0,0 km/h (0 Bft) S-SO 202 2 min 0 W/m -3,1 C -2,1 C 0,0 km/h (0 Bft)
30/01/2012 10:10 -1,8 C 93 % 1024,1 hPa 0,0 mm 0,0 km/h (0 Bft) S-SO 202 2 min 0 W/m -2,8 C -1,8 C 0,0 km/h (0 Bft)
30/01/2012 10:20 -1,7 C 93 % 1024,1 hPa 0,0 mm 0,0 km/h (0 Bft) S-SO 202 2 min 0 W/m -2,7 C -1,7 C 0,0 km/h (0 Bft)
30/01/2012 10:30 -1,5 C 93 % 1024,1 hPa 0,0 mm 0,0 km/h (0 Bft) SO 225 2 min 0 W/m -2,5 C -1,5 C 0,0 km/h (0 Bft)
30/01/2012 10:40 -1,4 C 93 % 1024,1 hPa 0,0 mm 0,0 km/h (0 Bft) SO 225 2 min 0 W/m -2,4 C -1,4 C 0,0 km/h (0 Bft)
30/01/2012 10:50 -1,2 C 93 % 1024,3 hPa 0,0 mm 0,0 km/h (0 Bft) SO 225 2 min 0 W/m -2,2 C -1,2 C 0,0 km/h (0 Bft)
30/01/2012 11:00 -1,1 C 93 % 1024,1 hPa 0,0 mm 0,0 km/h (0 Bft) SO 225 2 min 0 W/m -2,1 C -1,1 C 0,0 km/h (0 Bft)
30/01/2012 11:10 -0,7 C 93 % 1024,2 hPa 0,0 mm 0,0 km/h (0 Bft) S-SO 202 2 min 0 W/m -1,7 C -0,7 C 0,0 km/h (0 Bft)
30/01/2012 11:20 -0,6 C 93 % 1024,2 hPa 0,0 mm 0,0 km/h (0 Bft) SO 225 2 min 0 W/m -1,6 C -0,6 C 0,0 km/h (0 Bft)
30/01/2012 11:30 -0,2 C 93 % 1024,0 hPa 0,0 mm 0,0 km/h (0 Bft) SO 225 2 min 0 W/m -1,2 C -0,2 C 0,0 km/h (0 Bft)
30/01/2012 11:40 -0,1 C 91 % 1024,1 hPa 0,0 mm 0,0 km/h (0 Bft) N 360 2 min 0 W/m -1,4 C -0,1 C 0,0 km/h (0 Bft)
30/01/2012 11:50 0,5 C 90 % 1024,2 hPa 0,0 mm 1,8 km/h (1 Bft) S-SO 202 2 min 0 W/m -0,9 C 0,5 C 4,3 km/h (1 Bft)
30/01/2012 12:00 1,1 C 86 % 1024,1 hPa 0,0 mm 3,2 km/h (1 Bft) SO 225 2 min 0 W/m -1,0 C 1,1 C 4,0 km/h (1 Bft)
30/01/2012 12:10 1,3 C 85 % 1023,9 hPa 0,0 mm 0,0 km/h (0 Bft) SO 225 2 min 0 W/m -0,9 C 1,3 C 3,2 km/h (1 Bft)
30/01/2012 12:20 1,5 C 84 % 1023,8 hPa 0,0 mm 0,0 km/h (0 Bft) SO 225 2 min 0 W/m -0,9 C 1,5 C 3,2 km/h (1 Bft)
30/01/2012 12:30 1,6 C 83 % 1023,7 hPa 0,0 mm 4,7 km/h (1 Bft) S-SO 202 2 min 0 W/m -1,0 C 0,4 C 6,8 km/h (2 Bft)
30/01/2012 12:40 1,8 C 82 % 1023,6 hPa 0,0 mm 1,4 km/h (1 Bft) SO 225 2 min 0 W/m -0,9 C 1,8 C 4,3 km/h (1 Bft)
30/01/2012 12:50 1,9 C 81 % 1023,5 hPa 0,0 mm 1,1 km/h (1 Bft) O-SO 247 2 min 0 W/m -1,0 C 1,9 C 1,1 km/h (1 Bft)
30/01/2012 13:00 2,3 C 82 % 1023,5 hPa 0,0 mm 1,4 km/h (1 Bft) S-SO 202 2 min 0 W/m -0,4 C 2,3 C 4,0 km/h (1 Bft)
30/01/2012 13:10 2,4 C 80 % 1023,4 hPa 0,0 mm 1,1 km/h (1 Bft) SO 225 2 min 0 W/m -0,7 C 2,4 C 1,1 km/h (1 Bft)
30/01/2012 13:20 2,8 C 80 % 1023,3 hPa 0,0 mm 2,2 km/h (1 Bft) S 180 2 min 0 W/m -0,3 C 2,8 C 4,0 km/h (1 Bft)
30/01/2012 13:30 3,2 C 80 % 1023,2 hPa 0,0 mm 2,5 km/h (1 Bft) S 180 2 min 0 W/m 0,1 C 3,2 C 4,3 km/h (1 Bft)
30/01/2012 13:40 3,8 C 78 % 1023,4 hPa 0,0 mm 0,0 km/h (0 Bft) SO 225 2 min 0 W/m 0,3 C 3,8 C 0,0 km/h (0 Bft)
30/01/2012 13:50 4,0 C 75 % 1023,2 hPa 0,0 mm 0,0 km/h (0 Bft) O-SO 247 2 min 0 W/m -0,0 C 4,0 C 0,0 km/h (0 Bft)
30/01/2012 14:00 3,8 C 75 % 1023,0 hPa 0,0 mm 0,4 km/h (0 Bft) O 270 2 min 0 W/m -0,2 C 3,8 C 0,4 km/h (0 Bft)
30/01/2012 14:10 3,6 C 76 % 1023,0 hPa 0,0 mm 0,7 km/h (0 Bft) O-SO 247 2 min 0 W/m -0,2 C 3,6 C 2,9 km/h (1 Bft)
30/01/2012 14:20 3,4 C 75 % 1022,9 hPa 0,0 mm 2,2 km/h (1 Bft) SO 225 2 min 0 W/m -0,6 C 3,4 C 6,1 km/h (2 Bft)
30/01/2012 14:30 3,4 C 76 % 1022,4 hPa 0,0 mm 4,7 km/h (1 Bft) O-SO 247 2 min 0 W/m -0,4 C 2,4 C 8,3 km/h (2 Bft)
30/01/2012 14:40 3,3 C 75 % 1022,3 hPa 0,0 mm 0,4 km/h (0 Bft) S-SO 202 2 min 0 W/m -0,7 C 3,3 C 3,2 km/h (1 Bft)
30/01/2012 14:50 3,2 C 75 % 1022,2 hPa 0,0 mm 1,8 km/h (1 Bft) S-SO 202 2 min 0 W/m -0,8 C 3,2 C 3,6 km/h (1 Bft)
30/01/2012 15:00 3,0 C 75 % 1022,0 hPa 0,0 mm 0,4 km/h (0 Bft) S 180 2 min 0 W/m -1,0 C 3,0 C 0,4 km/h (0 Bft)
30/01/2012 15:10 2,9 C 76 % 1022,0 hPa 0,0 mm 0,4 km/h (0 Bft) SO 225 2 min 0 W/m -0,9 C 2,9 C 3,2 km/h (1 Bft)
30/01/2012 15:20 2,9 C 76 % 1021,8 hPa 0,0 mm 2,9 km/h (1 Bft) S-SO 202 2 min 0 W/m -0,9 C 2,9 C 6,8 km/h (2 Bft)
30/01/2012 15:30 2,8 C 77 % 1021,6 hPa 0,0 mm 2,5 km/h (1 Bft) S 180 2 min 0 W/m -0,8 C 2,8 C 5,8 km/h (2 Bft)
30/01/2012 15:40 2,9 C 78 % 1021,5 hPa 0,0 mm 0,4 km/h (0 Bft) S 180 2 min 0 W/m -0,5 C 2,9 C 3,2 km/h (1 Bft)
30/01/2012 15:50 2,8 C 79 % 1021,4 hPa 0,0 mm 3,2 km/h (1 Bft) SO 225 2 min 0 W/m -0,5 C 2,8 C 7,6 km/h (2 Bft)
30/01/2012 16:00 2,6 C 79 % 1021,3 hPa 0,0 mm 4,0 km/h (1 Bft) S-SO 202 2 min 0 W/m -0,7 C 2,6 C 7,6 km/h (2 Bft)
30/01/2012 16:10 2,5 C 80 % 1021,0 hPa 0,0 mm 1,1 km/h (1 Bft) SE 135 2 min 0 W/m -0,6 C 2,5 C 3,2 km/h (1 Bft)
30/01/2012 16:20 2,3 C 81 % 1020,9 hPa 0,0 mm 4,7 km/h (1 Bft) S-SE 157 2 min 0 W/m -0,6 C 1,2 C 10,4 km/h (2 Bft)
30/01/2012 16:30 2,1 C 83 % 1020,6 hPa 0,0 mm 5,4 km/h (2 Bft) S-SE 157 2 min 0 W/m -0,5 C 0,6 C 5,4 km/h (2 Bft)
30/01/2012 16:40 1,7 C 84 % 1020,6 hPa 0,0 mm 1,4 km/h (1 Bft) S-SO 202 2 min 0 W/m -0,7 C 1,7 C 4,7 km/h (1 Bft)
30/01/2012 16:50 1,4 C 87 % 1020,7 hPa 0,0 mm 3,6 km/h (1 Bft) S-SO 202 2 min 0 W/m -0,5 C 1,4 C 4,3 km/h (1 Bft)
30/01/2012 17:00 1,1 C 87 % 1020,5 hPa 0,0 mm 1,1 km/h (1 Bft) S-SE 157 2 min 0 W/m -0,8 C 1,1 C 4,0 km/h (1 Bft)
30/01/2012 17:10 0,9 C 87 % 1020,3 hPa 0,0 mm 0,7 km/h (0 Bft) S 180 2 min 0 W/m -1,0 C 0,9 C 4,0 km/h (1 Bft)
30/01/2012 17:20 0,8 C 88 % 1020,1 hPa 0,0 mm 0,4 km/h (0 Bft) S-SE 157 2 min 0 W/m -1,0 C 0,8 C 3,6 km/h (1 Bft)
30/01/2012 17:30 0,7 C 89 % 1020,1 hPa 0,0 mm 0,0 km/h (0 Bft) S-SE 157 2 min 0 W/m -0,9 C 0,7 C 0,0 km/h (0 Bft)
30/01/2012 17:40 0,6 C 90 % 1020,1 hPa 0,0 mm 0,0 km/h (0 Bft) S 180 2 min 0 W/m -0,8 C 0,6 C 0,0 km/h (0 Bft)
30/01/2012 17:50 0,5 C 90 % 1019,9 hPa 0,0 mm 0,0 km/h (0 Bft) S 180 0 min 0 W/m -0,9 C 0,5 C 0,0 km/h (0 Bft)
30/01/2012 18:00 0,4 C 90 % 1019,8 hPa 0,0 mm 0,4 km/h (0 Bft) S 180 0 min 0 W/m -1,0 C 0,4 C 2,9 km/h (1 Bft)
30/01/2012 18:10 0,4 C 90 % 1019,6 hPa 0,0 mm 1,4 km/h (1 Bft) S-SE 157 0 min 0 W/m -1,0 C 0,4 C 3,6 km/h (1 Bft)
30/01/2012 18:20 0,4 C 90 % 1019,4 hPa 0,0 mm 1,8 km/h (1 Bft) S-SE 157 0 min 0 W/m -1,0 C 0,4 C 4,0 km/h (1 Bft)
30/01/2012 18:30 0,4 C 91 % 1019,4 hPa 0,0 mm 0,0 km/h (0 Bft) S-SE 157 0 min 0 W/m -0,9 C 0,4 C 0,0 km/h (0 Bft)
30/01/2012 18:40 0,4 C 91 % 1019,2 hPa 0,0 mm 1,1 km/h (1 Bft) S-SE 157 0 min 0 W/m -0,9 C 0,4 C 3,6 km/h (1 Bft)
30/01/2012 18:50 0,3 C 92 % 1019,3 hPa 0,0 mm 0,0 km/h (0 Bft) S-SE 157 0 min 0 W/m -0,8 C 0,3 C 0,0 km/h (0 Bft)
30/01/2012 19:00 0,3 C 91 % 1019,0 hPa 0,0 mm 2,5 km/h (1 Bft) S-SE 157 0 min 0 W/m -1,0 C 0,3 C 6,8 km/h (2 Bft)
30/01/2012 19:10 0,3 C 92 % 1019,1 hPa 0,0 mm 1,1 km/h (1 Bft) S-SE 157 0 min 0 W/m -0,8 C 0,3 C 4,0 km/h (1 Bft)
30/01/2012 19:20 0,3 C 92 % 1018,9 hPa 0,0 mm 1,1 km/h (1 Bft) S-SE 157 0 min 0 W/m -0,8 C 0,3 C 4,3 km/h (1 Bft)
30/01/2012 19:30 0,3 C 92 % 1018,8 hPa 0,0 mm 0,7 km/h (0 Bft) S-SE 157 0 min 0 W/m -0,8 C 0,3 C 4,0 km/h (1 Bft)
30/01/2012 19:40 0,3 C 92 % 1018,8 hPa 0,0 mm 0,0 km/h (0 Bft) S-SE 157 0 min 0 W/m -0,8 C 0,3 C 0,0 km/h (0 Bft)
30/01/2012 19:50 0,3 C 92 % 1018,7 hPa 0,0 mm 0,0 km/h (0 Bft) S-SE 157 0 min 0 W/m -0,8 C 0,3 C 3,2 km/h (1 Bft)
30/01/2012 20:00 0,3 C 93 % 1018,6 hPa 0,0 mm 0,0 km/h (0 Bft) S-SE 157 0 min 0 W/m -0,7 C 0,3 C 0,0 km/h (0 Bft)
30/01/2012 20:10 0,3 C 93 % 1018,4 hPa 0,0 mm 1,4 km/h (1 Bft) S-SE 157 0 min 0 W/m -0,7 C 0,3 C 4,3 km/h (1 Bft)
30/01/2012 20:20 0,3 C 93 % 1018,4 hPa 0,0 mm 1,4 km/h (1 Bft) N 360 0 min 0 W/m -0,7 C 0,3 C 1,4 km/h (1 Bft)
30/01/2012 20:30 0,3 C 93 % 1018,3 hPa 0,0 mm 0,0 km/h (0 Bft) S-SE 157 0 min 0 W/m -0,7 C 0,3 C 0,0 km/h (0 Bft)
30/01/2012 20:40 0,4 C 93 % 1018,2 hPa 0,0 mm 0,0 km/h (0 Bft) S-SE 157 0 min 0 W/m -0,6 C 0,4 C 0,0 km/h (0 Bft)
30/01/2012 20:50 0,4 C 93 % 1017,8 hPa 0,0 mm 2,5 km/h (1 Bft) S-SE 157 0 min 0 W/m -0,6 C 0,4 C 4,3 km/h (1 Bft)
30/01/2012 21:00 0,4 C 93 % 1017,9 hPa 0,0 mm 0,4 km/h (0 Bft) S-SE 157 0 min 0 W/m -0,6 C 0,4 C 3,2 km/h (1 Bft)
30/01/2012 21:10 0,4 C 93 % 1017,7 hPa 0,0 mm 0,7 km/h (0 Bft) S-SE 157 0 min 0 W/m -0,6 C 0,4 C 0,7 km/h (0 Bft)
30/01/2012 21:20 0,4 C 93 % 1017,5 hPa 0,0 mm 0,4 km/h (0 Bft) S-SE 157 0 min 0 W/m -0,6 C 0,4 C 0,4 km/h (0 Bft)
30/01/2012 21:30 0,5 C 94 % 1017,3 hPa 0,0 mm 4,0 km/h (1 Bft) S 180 0 min 0 W/m -0,4 C 0,5 C 4,3 km/h (1 Bft)
30/01/2012 21:40 0,6 C 94 % 1017,3 hPa 0,0 mm 1,4 km/h (1 Bft) S 180 0 min 0 W/m -0,3 C 0,6 C 1,4 km/h (1 Bft)
30/01/2012 21:50 0,6 C 94 % 1017,3 hPa 0,0 mm 0,0 km/h (0 Bft) S 180 0 min 0 W/m -0,3 C 0,6 C 0,0 km/h (0 Bft)
30/01/2012 22:00 0,6 C 94 % 1017,3 hPa 0,0 mm 0,0 km/h (0 Bft) S 180 0 min 0 W/m -0,3 C 0,6 C 0,0 km/h (0 Bft)
30/01/2012 22:10 0,8 C 94 % 1017,3 hPa 0,0 mm 0,0 km/h (0 Bft) O-SO 247 0 min 0 W/m -0,1 C 0,8 C 0,0 km/h (0 Bft)
30/01/2012 22:20 0,8 C 94 % 1017,2 hPa 0,0 mm 2,5 km/h (1 Bft) S 180 0 min 0 W/m -0,1 C 0,8 C 4,3 km/h (1 Bft)
30/01/2012 22:30 0,8 C 94 % 1017,0 hPa 0,0 mm 2,9 km/h (1 Bft) SO 225 0 min 0 W/m -0,1 C 0,8 C 4,3 km/h (1 Bft)
30/01/2012 22:40 0,9 C 94 % 1016,8 hPa 0,1 mm 1,8 km/h (1 Bft) SO 225 0 min 0 W/m 0,0 C 0,9 C 5,8 km/h (2 Bft)
30/01/2012 22:50 0,9 C 94 % 1016,7 hPa 0,1 mm 2,5 km/h (1 Bft) SO 225 0 min 0 W/m 0,0 C 0,9 C 4,0 km/h (1 Bft)
30/01/2012 23:00 0,9 C 94 % 1016,6 hPa 0,2 mm 0,4 km/h (0 Bft) O-SO 247 0 min 0 W/m 0,0 C 0,9 C 4,3 km/h (1 Bft)
30/01/2012 23:10 0,9 C 94 % 1016,6 hPa 0,1 mm 1,1 km/h (1 Bft) O-NO 292 0 min 0 W/m 0,0 C 0,9 C 1,1 km/h (1 Bft)
30/01/2012 23:20 0,9 C 94 % 1016,6 hPa 0,1 mm 0,0 km/h (0 Bft) NO 315 0 min 0 W/m 0,0 C 0,9 C 0,0 km/h (0 Bft)
30/01/2012 23:30 0,9 C 94 % 1016,5 hPa 0,1 mm 0,0 km/h (0 Bft) NO 315 0 min 0 W/m 0,0 C 0,9 C 0,0 km/h (0 Bft)
30/01/2012 23:40 0,9 C 94 % 1016,4 hPa 0,0 mm 0,0 km/h (0 Bft) SO 225 0 min 0 W/m 0,0 C 0,9 C 0,0 km/h (0 Bft)
30/01/2012 23:50 0,9 C 94 % 1016,3 hPa 0,0 mm 0,4 km/h (0 Bft) S 180 0 min 0 W/m 0,0 C 0,9 C 3,2 km/h (1 Bft)
_ Min-Heure 06:50 15:00 23:50 - 23:40 - - - - 06:50 06:50 23:40
Minimum _ -4,5 C 75 % 1016,3 hPa - 0,0 km/h (0 Bft) - - - - -5,9 C -4,5 C 0,0 km/h (0 Bft)
_ Max-Heure 13:50 23:50 02:30 23:00 16:30 - - 17:40 23:50 13:40 13:50 16:20
Maximum _ 4,0 C 94 % 1024,7 hPa 0,2 mm 5,4 km/h
S-SE (2 Bft)
- - 2 min 0 W/m 0,3 C 4,0 C 10,4 km/h
S-SE (2 Bft)
Moyenne _ -0,6 C 88 % 1022,1 hPa #0,7 mm 0,7 km/h (0 Bft) NE - #1:50 h 0 W/m -2,4 C -0,7 C 1,6 km/h (1 Bft)
Saint Bonnet de Bellac- Haute Vienne - France